TFL75X HESH-EHEH

Flight info

Callsign TFL75X
Flight time N/A
Altitude 34000
Route SHM L677 CVO L617 NOZ/N0458F360 L551 ANTAR UN133 PEREN UL863 MICPO/N0456F380 UL863 EVIVI DCT OKANA DCT TONDO DCT BEGLA DCT DITIS DCT LOMKI DCT VARIK DCT KATCE DCT WRB DCT DOMEG DCT ROTEK
Aircraft B738/M-SDE1FGHIJ1RWXYZ/LB1

Departure

Time 2026-04-27 14:35
Airport Sharm El Sheikh International Airport (HESH)

Arrival

Time N/A
Airport Eindhoven Airport (EHEH)
Time Latitude Longitude Altitude Speed Heading
2026-04-27 14:19 27.98189 34.39242 171 ft 0 kts 313°
2026-04-27 14:26 27.98188 34.39244 171 ft 2 kts 313°
2026-04-27 14:27 27.98171 34.39267 171 ft 4 kts 300°
2026-04-27 14:27 27.98161 34.39294 171 ft 4 kts 276°
2026-04-27 14:27 27.98165 34.39319 171 ft 3 kts 225°
2026-04-27 14:27 27.98171 34.39325 171 ft 0 kts 222°
2026-04-27 14:29 27.98163 34.39317 171 ft 6 kts 222°
2026-04-27 14:30 27.98100 34.39252 171 ft 15 kts 222°
2026-04-27 14:30 27.98023 34.39172 171 ft 15 kts 222°
2026-04-27 14:30 27.97948 34.39095 171 ft 14 kts 222°
2026-04-27 14:30 27.97877 34.39022 171 ft 14 kts 222°
2026-04-27 14:31 27.97809 34.38951 171 ft 13 kts 222°
2026-04-27 14:31 27.97743 34.38883 171 ft 13 kts 222°
2026-04-27 14:31 27.97679 34.38817 171 ft 12 kts 222°
2026-04-27 14:31 27.97617 34.38752 171 ft 12 kts 224°
2026-04-27 14:32 27.97555 34.38685 171 ft 13 kts 223°
2026-04-27 14:32 27.97486 34.38613 171 ft 14 kts 223°
2026-04-27 14:32 27.97409 34.38533 171 ft 16 kts 223°
2026-04-27 14:32 27.97325 34.38445 171 ft 17 kts 223°
2026-04-27 14:33 27.97235 34.38350 171 ft 18 kts 223°
2026-04-27 14:33 27.97138 34.38251 171 ft 19 kts 222°
2026-04-27 14:33 27.97040 34.38150 171 ft 18 kts 222°
2026-04-27 14:33 27.96939 34.38180 173 ft 18 kts 128°
2026-04-27 14:34 27.96899 34.38298 172 ft 17 kts 60°
2026-04-27 14:34 27.97067 34.38478 174 ft 65 kts 43°
2026-04-27 14:34 27.97576 34.39007 172 ft 131 kts 43°
2026-04-27 14:34 27.98366 34.39844 324 ft 171 kts 44°
2026-04-27 14:35 27.99259 34.40759 1109 ft 176 kts 33°
2026-04-27 14:35 28.00471 34.41052 1715 ft 184 kts 342°
2026-04-27 14:35 28.01525 34.40225 2241 ft 200 kts 306°
2026-04-27 14:35 28.02330 34.38880 2507 ft 217 kts 304°
2026-04-27 14:36 28.03217 34.37412 2776 ft 230 kts 305°
2026-04-27 14:36 28.04160 34.35907 3258 ft 236 kts 306°
2026-04-27 14:36 28.05151 34.34380 3646 ft 251 kts 307°
2026-04-27 14:36 28.06240 34.32753 4095 ft 266 kts 308°
2026-04-27 14:37 28.07375 34.31085 4835 ft 268 kts 309°
2026-04-27 14:37 28.08524 34.29418 5579 ft 271 kts 309°
2026-04-27 14:37 28.09693 34.27748 6342 ft 272 kts 310°
2026-04-27 14:37 28.10873 34.26083 7128 ft 268 kts 310°
2026-04-27 14:38 28.12038 34.24444 7928 ft 268 kts 309°
2026-04-27 14:38 28.13217 34.22792 8569 ft 271 kts 309°
2026-04-27 14:38 28.14386 34.21159 9331 ft 271 kts 309°
2026-04-27 14:38 28.15598 34.19469 9956 ft 275 kts 308°
2026-04-27 14:39 28.16820 34.17768 10389 ft 286 kts 308°
2026-04-27 14:39 28.18121 34.15955 10517 ft 306 kts 308°
2026-04-27 14:39 28.19488 34.14050 10684 ft 325 kts 308°
2026-04-27 14:39 28.20954 34.12010 10816 ft 343 kts 308°
2026-04-27 14:40 28.22492 34.09873 11153 ft 354 kts 308°
2026-04-27 14:40 28.24063 34.07688 11641 ft 360 kts 308°
2026-04-27 14:40 28.25652 34.05478 12240 ft 362 kts 308°
2026-04-27 14:40 28.27239 34.03269 12958 ft 362 kts 308°
2026-04-27 14:41 28.28835 34.01051 13576 ft 364 kts 307°
2026-04-27 14:41 28.30434 33.98823 14084 ft 366 kts 307°
2026-04-27 14:41 28.32047 33.96572 14591 ft 369 kts 307°
2026-04-27 14:41 28.33663 33.94295 15072 ft 372 kts 307°
2026-04-27 14:42 28.35299 33.92005 15562 ft 374 kts 307°
2026-04-27 14:42 28.36940 33.89723 16205 ft 373 kts 307°
2026-04-27 14:42 28.38580 33.87440 16751 ft 374 kts 307°
2026-04-27 14:42 28.40239 33.85126 17082 ft 380 kts 307°
2026-04-27 14:43 28.41905 33.82797 17640 ft 378 kts 307°
2026-04-27 14:43 28.43567 33.80472 18116 ft 381 kts 307°
2026-04-27 14:43 28.45245 33.78123 18490 ft 384 kts 307°
2026-04-27 14:43 28.46936 33.75753 18874 ft 387 kts 307°
2026-04-27 14:44 28.48632 33.73378 19244 ft 388 kts 307°
2026-04-27 14:44 28.50334 33.70989 19635 ft 390 kts 307°
2026-04-27 14:44 28.52046 33.68585 19964 ft 393 kts 307°
2026-04-27 14:44 28.53775 33.66156 20334 ft 395 kts 307°
2026-04-27 14:45 28.55508 33.63720 20772 ft 398 kts 307°
2026-04-27 14:45 28.57250 33.61267 21165 ft 400 kts 307°
2026-04-27 14:45 28.59003 33.58797 21530 ft 402 kts 307°
2026-04-27 14:45 28.60762 33.56318 21983 ft 402 kts 307°
2026-04-27 14:46 28.62517 33.53844 22403 ft 403 kts 307°
2026-04-27 14:46 28.64290 33.51344 22626 ft 409 kts 307°
2026-04-27 14:46 28.66060 33.48850 22920 ft 411 kts 307°
2026-04-27 14:46 28.67883 33.46281 23301 ft 412 kts 307°
2026-04-27 14:47 28.69664 33.43770 23613 ft 414 kts 307°
2026-04-27 14:47 28.71478 33.41212 23878 ft 416 kts 307°
2026-04-27 14:47 28.73300 33.38640 24140 ft 418 kts 307°
2026-04-27 14:47 28.75128 33.36057 24391 ft 420 kts 307°
2026-04-27 14:48 28.76966 33.33457 24650 ft 422 kts 307°
2026-04-27 14:48 28.80656 33.28235 25182 ft 426 kts 307°
2026-04-27 14:48 28.82517 33.25599 25445 ft 427 kts 307°
2026-04-27 14:49 28.84380 33.22958 25697 ft 429 kts 307°
2026-04-27 14:49 28.86253 33.20300 25946 ft 430 kts 307°
2026-04-27 14:49 28.88130 33.17636 26189 ft 432 kts 307°
2026-04-27 14:49 28.90016 33.14958 26427 ft 433 kts 307°
2026-04-27 14:50 28.91905 33.12274 26662 ft 435 kts 307°
2026-04-27 14:50 28.93804 33.09573 26884 ft 437 kts 307°
2026-04-27 14:50 28.95707 33.06865 27123 ft 438 kts 307°
2026-04-27 14:50 28.97610 33.04155 27418 ft 437 kts 306°
2026-04-27 14:51 28.98868 33.02362 27650 ft 436 kts 306°
2026-04-27 14:51 29.00762 32.99663 28004 ft 435 kts 306°
2026-04-27 14:51 29.02651 32.96970 28333 ft 434 kts 306°
2026-04-27 14:51 29.04539 32.94275 28626 ft 434 kts 306°
2026-04-27 14:52 29.07035 32.90709 29057 ft 433 kts 306°
2026-04-27 14:52 29.08913 32.88024 29405 ft 432 kts 306°
2026-04-27 14:52 29.10178 32.86214 29613 ft 431 kts 306°
2026-04-27 14:52 29.12051 32.83534 29911 ft 431 kts 306°
2026-04-27 14:53 29.13920 32.80857 30192 ft 430 kts 306°
2026-04-27 14:53 29.15785 32.78185 30517 ft 428 kts 306°
2026-04-27 14:53 29.17635 32.75533 30863 ft 425 kts 306°
2026-04-27 14:53 29.19471 32.72899 31164 ft 423 kts 306°
2026-04-27 14:54 29.21277 32.70304 31429 ft 422 kts 306°
2026-04-27 14:54 29.23103 32.67680 31709 ft 420 kts 306°
2026-04-27 14:54 29.24916 32.65073 32010 ft 418 kts 306°
2026-04-27 14:54 29.26725 32.62471 32284 ft 417 kts 306°
2026-04-27 14:55 29.28527 32.59877 32545 ft 415 kts 305°
2026-04-27 14:55 29.30313 32.57291 32826 ft 413 kts 305°
2026-04-27 14:55 29.32087 32.54708 33115 ft 411 kts 305°
2026-04-27 14:55 29.33848 32.52140 33373 ft 409 kts 305°
2026-04-27 14:56 29.35605 32.49573 33585 ft 409 kts 305°
2026-04-27 14:56 29.37360 32.47010 33834 ft 408 kts 305°
2026-04-27 14:56 29.40867 32.41883 33943 ft 409 kts 305°
2026-04-27 14:57 29.44372 32.36757 33947 ft 407 kts 305°
2026-04-27 14:57 29.47857 32.31655 33944 ft 405 kts 305°
2026-04-27 14:58 29.51323 32.26573 33946 ft 404 kts 305°
2026-04-27 14:58 29.54782 32.21496 33955 ft 403 kts 305°
2026-04-27 14:59 29.58232 32.16424 33952 ft 403 kts 305°
2026-04-27 14:59 29.61683 32.11346 33958 ft 403 kts 305°
2026-04-27 15:00 29.65137 32.06257 33956 ft 404 kts 305°
2026-04-27 15:00 29.68597 32.01151 33959 ft 405 kts 305°
2026-04-27 15:01 29.72065 31.96029 33966 ft 406 kts 305°
2026-04-27 15:01 29.75519 31.90921 33967 ft 408 kts 305°
2026-04-27 15:02 29.78998 31.85756 33968 ft 409 kts 305°
2026-04-27 15:02 29.82391 31.80503 33966 ft 409 kts 304°
2026-04-27 15:03 29.85762 31.75232 33961 ft 409 kts 304°
2026-04-27 15:03 29.89146 31.69965 33965 ft 409 kts 304°
2026-04-27 15:04 29.92527 31.64707 33962 ft 408 kts 304°
2026-04-27 15:04 29.95910 31.59465 33968 ft 407 kts 304°
2026-04-27 15:05 29.99281 31.54237 33970 ft 406 kts 304°
2026-04-27 15:05 30.02645 31.49011 33965 ft 405 kts 304°
2026-04-27 15:06 30.05999 31.43791 33968 ft 404 kts 304°
2026-04-27 15:06 30.09404 31.38632 33969 ft 405 kts 309°
2026-04-27 15:07 30.13488 31.34132 33966 ft 406 kts 314°
2026-04-27 15:07 30.17647 31.29724 33970 ft 405 kts 314°
2026-04-27 15:08 30.21784 31.25308 33970 ft 405 kts 314°
2026-04-27 15:08 30.25909 31.20883 33969 ft 404 kts 314°
2026-04-27 15:09 30.30027 31.16453 33969 ft 404 kts 314°
2026-04-27 15:09 30.34129 31.12033 33969 ft 404 kts 314°
2026-04-27 15:10 30.38248 31.07590 33972 ft 405 kts 314°
2026-04-27 15:10 30.42369 31.03140 33974 ft 405 kts 314°
2026-04-27 15:11 30.46496 30.98678 33975 ft 406 kts 314°
2026-04-27 15:11 30.50597 30.94238 33978 ft 407 kts 314°
2026-04-27 15:12 30.54733 30.89755 33980 ft 407 kts 314°
2026-04-27 15:12 30.58871 30.85266 33979 ft 407 kts 314°
2026-04-27 15:13 30.63009 30.80769 33984 ft 408 kts 314°
2026-04-27 15:13 30.67148 30.76268 33985 ft 408 kts 314°
2026-04-27 15:14 30.71285 30.71762 33990 ft 407 kts 314°
2026-04-27 15:14 30.75418 30.67255 33984 ft 407 kts 314°
2026-04-27 15:15 30.79546 30.62748 33987 ft 407 kts 314°
2026-04-27 15:15 30.83673 30.58236 33992 ft 407 kts 314°